Weather History for KGJT - November, 2014

Change the Weather History Date:

Saturday, November 22, 2014

  Actual Average Record
Temperature  
Mean Temperature 32 °F 36 °F  
Max Temperature 44 °F 47 °F 63 °F (1966)
Min Temperature 19 °F 25 °F 11 °F (1979)
Degree Days  
Heating Degree Days 33 29  
Month to date heating degree days 617 528  
Since 1 July heating degree days 983 976  
Cooling Degree Days 0 0  
Month to date cooling degree days 0 0  
Year to date cooling degree days 1046 1125  
Moisture  
Dew Point 24 °F    
Average Humidity 69    
Maximum Humidity 100    
Minimum Humidity 37    
Precipitation  
Precipitation 0.11 in 0.03 in 0.42 in (2013)
Month to date precipitation 0.39 0.56  
Year to date precipitation 10.90 8.66  
Snow  
Snow 0.00 in 0.10 in 3.80 in (1906)
Month to date snowfall T 1.3  
Since 1 July snowfall T 1.7  
Since 1 September snowfall T 1.7  
Snow Depth 0.00 in    
Sea Level Pressure  
Sea Level Pressure 29.95 in    
Wind  
Wind Speed 6 mph (ENE)    
Max Wind Speed 23 mph    
Max Gust Speed 28 mph    
Visibility 10 miles    
Events Rain    
T = Trace of Precipitation, MM = Missing Value Source: NWS Daily Summary

Daily Weather History Graph

Daily Weather History Graph

Search for Another Location

Airport or City:

Trip Planner

Search our weather history database for the weather conditions in past years. The results will help you decide how hot, cold, wet, or windy it might be!

Date:

Astronomy

Nov. 22, 2014 Rise Set
Actual Time 7:05 AM MST 4:55 PM MST
Civil Twilight 6:36 AM MST 5:24 PM MST
Nautical Twilight 6:03 AM MST 5:56 PM MST
Astronomical Twilight 5:31 AM MST 6:28 PM MST
Moon 7:04 AM MST (11/22) 5:28 PM MST (11/22)
Length of Visible Light 10h 48m
Length of Day
9h 50m
New Moon, 0% of the Moon is Illuminated
Nov 22
New Moon
Nov 29
First Quarter
Dec 6
Full
Dec 14
Last Quarter
Dec 21
New

Hourly Weather History & Observations

Time (MST) Temp. Windchill Dew Point Humidity Pressure Visibility Wind Dir Wind Speed Gust Speed Precip Events Conditions
12:53 AM 30.9 °F 26.2 °F 17.1 °F 57% 30.08 in 10.0 mi East 4.6 mph - N/A   Clear
1:53 AM 28.9 °F 22.8 °F 16.0 °F 58% 30.07 in 10.0 mi East 5.8 mph - N/A   Clear
2:53 AM 26.1 °F 21.9 °F 16.0 °F 66% 30.09 in 10.0 mi East 3.5 mph - N/A   Clear
3:53 AM 21.9 °F 14.5 °F 15.1 °F 75% 30.10 in 10.0 mi SE 5.8 mph - N/A   Clear
4:53 AM 21.0 °F 11.4 °F 15.1 °F 78% 30.11 in 10.0 mi East 8.1 mph - N/A   Clear
5:53 AM 21.9 °F 17.2 °F 15.1 °F 75% 30.12 in 10.0 mi East 3.5 mph - N/A   Clear
6:53 AM 21.9 °F 17.2 °F 15.1 °F 75% 30.15 in 10.0 mi ENE 3.5 mph - N/A   Clear
7:53 AM 24.1 °F 19.7 °F 17.1 °F 75% 30.14 in 10.0 mi East 3.5 mph - N/A   Clear
8:53 AM 33.1 °F 25.5 °F 19.0 °F 56% 30.08 in 10.0 mi ESE 9.2 mph - N/A   Clear
9:53 AM 39.0 °F 31.0 °F 19.9 °F 46% 30.04 in 10.0 mi ESE 13.8 mph 25.3 mph N/A   Clear
10:21 AM 42.1 °F 36.1 °F 19.9 °F 41% 30.00 in 10.0 mi ESE 10.4 mph - N/A   Partly Cloudy
10:53 AM 44.1 °F 38.1 °F 19.0 °F 37% 29.99 in 10.0 mi East 11.5 mph - N/A   Clear
11:53 AM 42.1 °F 36.6 °F 21.9 °F 45% 29.95 in 10.0 mi West 9.2 mph - N/A   Clear
12:53 PM 43.0 °F 38.2 °F 21.0 °F 42% 29.90 in 10.0 mi WNW 8.1 mph - N/A   Clear
1:53 PM 39.9 °F 32.9 °F 21.0 °F 47% 29.89 in 10.0 mi WNW 11.5 mph - N/A   Mostly Cloudy
2:53 PM 41.0 °F 37.1 °F 21.9 °F 47% 29.89 in 10.0 mi Variable 5.8 mph - N/A   Overcast
3:53 PM 42.1 °F 40.2 °F 21.0 °F 43% 29.88 in 10.0 mi SSE 3.5 mph - N/A   Overcast
4:53 PM 39.9 °F 35.8 °F 23.0 °F 51% 29.91 in 10.0 mi East 5.8 mph - 0.00 in   Overcast
5:19 PM 39.0 °F 36.8 °F 30.9 °F 73% 29.87 in 4.0 mi Variable 3.5 mph - 0.01 in Rain Rain
5:50 PM 37.4 °F 32.1 °F 33.8 °F 87% 29.84 in 10.0 mi NE 6.9 mph - 0.06 in Rain Light Rain
5:53 PM 36.0 °F 31.1 °F 33.1 °F 89% 29.88 in 10.0 mi NE 5.8 mph - 0.06 in Rain Light Rain
6:53 PM 35.1 °F 31.0 °F 33.1 °F 92% 29.84 in 10.0 mi North 4.6 mph - 0.00 in   Mostly Cloudy
7:53 PM 35.1 °F 32.2 °F 33.1 °F 92% 29.84 in 10.0 mi North 3.5 mph - N/A   Overcast
8:53 PM 32.0 °F - 32.0 °F 100% 29.81 in 10.0 mi Calm Calm - N/A   Mostly Cloudy
9:53 PM 33.1 °F 30.0 °F 33.1 °F 100% 29.78 in 10.0 mi NNW 3.5 mph - N/A   Overcast
10:28 PM 34.0 °F 26.6 °F 33.1 °F 96% 29.82 in 5.0 mi NNW 9.2 mph - 0.01 in Rain Rain
10:53 PM 34.0 °F 28.8 °F 33.1 °F 96% 29.81 in 8.0 mi NW 5.8 mph - 0.03 in Rain Light Rain
11:22 PM 34.0 °F - 33.1 °F 96% 29.82 in 10.0 mi Calm Calm - 0.02 in   Overcast
11:53 PM 34.0 °F 28.8 °F 33.1 °F 96% 29.81 in 10.0 mi East 5.8 mph - 0.02 in   Overcast